SDT,��Ԑ��ʗ��i��Gy/h�j,�����ʗ��i��Gy/h),�~�J��i�����j,���J��,�����l�i��Gy/h�j,����l�i��Gy/h�j,�ߋ��̍ő�l�i��Gy/h�j
20120701010000,2.243,1.958,0.0,,0.036,0.057,0.101
20120701020000,2.243,1.957,0.0,,,,
20120701030000,2.245,1.957,0.0,,,,
20120701040000,2.243,1.957,0.0,,,,
20120701050000,2.244,1.957,0.0,,,,
20120701060000,2.245,1.958,0.0,,,,
20120701070000,2.242,1.958,0.0,,,,
20120701080000,2.231,1.947,0.0,,,,
20120701090000,2.224,1.94,0.5,,,,
20120701100000,2.224,1.943,0.0,,,,
20120701110000,2.224,1.94,0.0,,,,
20120701120000,2.224,1.944,0.0,,,,
20120701130000,2.229,1.947,0.0,,,,
20120701140000,2.228,1.951,0.0,,,,
20120701150000,2.228,1.952,0.0,,,,
20120701160000,2.225,1.954,0.0,,,,
20120701170000,2.226,1.953,0.0,,,,
20120701180000,2.226,1.954,0.0,,,,
20120701190000,2.236,1.953,0.0,,,,
20120701200000,2.234,1.951,0.0,,,,
20120701210000,2.233,1.95,0.0,,,,
20120701220000,2.234,1.95,0.0,,,,
20120701230000,2.231,1.948,0.5,,,,
20120702000000,2.228,1.944,0.0,,,,
20120702010000,2.225,1.941,1.0,,,,
20120702020000,2.199,1.92,4.0,,,,
20120702030000,2.186,1.907,2.0,,,,
20120702040000,2.179,1.901,2.0,,,,
20120702050000,2.173,1.895,2.0,,,,
20120702060000,2.163,1.887,3.0,,,,
20120702070000,2.164,1.888,1.0,,,,
20120702080000,2.166,1.89,0.0,,,,
20120702090000,2.161,1.883,1.0,,,,
20120702100000,2.162,1.886,0.0,,,,
20120702110000,2.166,1.891,0.0,,,,
20120702120000,2.166,1.891,0.0,,,,
20120702130000,2.167,1.897,0.0,,,,
20120702140000,2.17,1.902,0.0,,,,
20120702150000,2.168,1.908,0.0,,,,
20120702160000,2.166,1.91,0.0,,,,
20120702170000,2.168,1.912,0.0,,,,
20120702180000,2.168,1.911,0.0,,,,
20120702190000,2.172,1.913,0.0,,,,
20120702200000,2.175,1.911,0.0,,,,
20120702210000,2.18,1.91,0.0,,,,
20120702220000,2.186,1.908,0.0,,,,
20120702230000,2.187,1.909,0.0,,,,
20120703000000,2.187,1.91,0.0,,,,
20120703010000,2.187,1.909,0.0,,,,
20120703020000,2.185,1.907,0.0,,,,
20120703030000,2.186,1.904,0.0,,,,
20120703040000,2.183,1.905,0.0,,,,
20120703050000,2.182,1.903,0.0,,,,
20120703060000,2.183,1.903,0.0,,,,
20120703070000,2.186,1.907,0.0,,,,
20120703080000,2.189,1.91,0.0,,,,
20120703090000,2.191,1.912,0.0,,,,
20120703100000,2.189,1.914,0.0,,,,
20120703110000,2.187,1.914,0.0,,,,
20120703120000,2.187,1.915,0.0,,,,
20120703130000,2.189,1.918,0.0,,,,
20120703140000,2.187,1.918,0.0,,,,
20120703150000,2.189,1.92,0.0,,,,
20120703160000,2.191,1.918,0.0,,,,
20120703170000,2.196,1.919,0.0,,,,
20120703180000,2.198,1.918,0.0,,,,
20120703190000,2.197,1.919,0.0,,,,
20120703200000,2.196,1.915,0.5,,,,
20120703210000,2.187,1.91,1.5,,,,
20120703220000,2.181,1.902,0.5,,,,
20120703230000,2.174,1.898,1.0,,,,
20120704000000,2.172,1.895,0.5,,,,
20120704010000,2.17,1.894,0.0,,,,
20120704020000,2.17,1.895,0.0,,,,
20120704030000,2.172,1.895,0.0,,,,
20120704040000,2.171,1.895,0.0,,,,
20120704050000,2.173,1.895,0.0,,,,
20120704060000,2.173,1.893,0.0,,,,
20120704070000,2.173,1.895,0.0,,,,
20120704080000,2.176,1.897,0.0,,,,
20120704090000,2.177,1.901,0.0,,,,
20120704100000,2.177,1.906,0.0,,,,
20120704110000,2.177,1.91,0.0,,,,
20120704120000,2.175,1.916,0.0,,,,
20120704130000,2.171,1.921,0.0,,,,
20120704140000,2.162,1.923,0.0,,,,
20120704150000,2.157,1.924,0.0,,,,
20120704160000,2.155,1.926,0.0,,,,
20120704170000,2.155,1.927,0.0,,,,
20120704180000,2.155,1.928,0.0,,,,
20120704190000,2.155,1.925,0.0,,,,
20120704200000,2.156,1.922,0.0,,,,
20120704210000,2.167,1.923,0.0,,,,
20120704220000,2.18,1.922,0.0,,,,
20120704230000,2.189,1.92,0.0,,,,
20120705000000,2.198,1.918,0.0,,,,
20120705010000,2.2,1.92,0.0,,,,
20120705020000,2.198,1.92,0.0,,,,
20120705030000,2.197,1.92,0.0,,,,
20120705040000,2.199,1.919,0.0,,,,
20120705050000,2.197,1.919,0.0,,,,
20120705060000,2.19,1.911,0.5,,,,
20120705070000,2.188,1.911,0.0,,,,
20120705080000,2.189,1.912,0.0,,,,
20120705090000,2.186,1.913,0.0,,,,
20120705100000,2.184,1.914,0.0,,,,
20120705110000,2.182,1.916,0.0,,,,
20120705120000,2.182,1.923,0.0,,,,
20120705130000,2.176,1.929,0.0,,,,
20120705140000,2.166,1.93,0.0,,,,
20120705150000,2.16,1.929,0.5,,,,
20120705160000,2.156,1.927,0.0,,,,
20120705170000,2.159,1.927,0.0,,,,
20120705180000,2.16,1.929,0.0,,,,
20120705190000,2.165,1.927,0.0,,,,
20120705200000,2.166,1.922,0.5,,,,
20120705210000,2.163,1.914,1.5,,,,
20120705220000,2.163,1.906,2.5,,,,
20120705230000,2.141,1.881,4.0,,,,
20120706000000,2.147,1.879,0.0,,,,
20120706010000,2.152,1.879,0.5,,,,
20120706020000,2.153,1.878,0.0,,,,
20120706030000,2.155,1.88,0.0,,,,
20120706040000,2.154,1.879,0.0,,,,
20120706050000,2.156,1.883,0.0,,,,
20120706060000,2.157,1.881,0.0,,,,
20120706070000,2.16,1.886,0.0,,,,
20120706080000,2.158,1.89,0.0,,,,
20120706090000,2.158,1.899,0.0,,,,
20120706100000,2.15,1.898,0.0,,,,
20120706110000,2.132,1.891,0.0,,,,
20120706120000,2.133,1.897,0.0,,,,
20120706130000,2.141,1.91,0.0,,,,
20120706140000,2.13,1.907,0.0,,,,
20120706150000,2.137,1.911,0.0,,,,
20120706160000,2.141,1.912,0.0,,,,
20120706170000,2.141,1.913,0.5,,,,
20120706180000,2.128,1.897,5.0,,,,
20120706190000,2.125,1.885,0.5,,,,
20120706200000,2.131,1.88,0.0,,,,
20120706210000,2.132,1.873,1.0,,,,
20120706220000,2.134,1.869,1.0,,,,
20120706230000,2.139,1.866,1.0,,,,
20120707000000,2.134,1.862,8.0,,,,
20120707010000,2.105,1.834,20.0,,,,
20120707020000,2.11,1.828,1.0,,,,
20120707030000,2.115,1.835,2.5,,,,
20120707040000,2.098,1.819,5.5,,,,
20120707050000,2.106,1.827,5.0,,,,
20120707060000,2.109,1.83,5.5,,,,
20120707070000,2.1,1.822,6.0,,,,
20120707080000,2.089,1.812,5.0,,,,
20120707090000,2.086,1.81,8.5,,,,
20120707100000,2.095,1.816,3.5,,,,
20120707110000,2.091,1.811,6.0,,,,
20120707120000,2.09,1.812,7.5,,,,
20120707130000,2.081,1.805,6.5,,,,
20120707140000,2.079,1.802,3.5,,,,
20120707150000,2.075,1.799,4.5,,,,
20120707160000,2.076,1.797,3.5,,,,
20120707170000,2.076,1.798,4.0,,,,
20120707180000,2.075,1.798,3.5,,,,
20120707190000,2.075,1.799,2.5,,,,
20120707200000,2.067,1.791,5.0,,,,
20120707210000,2.072,1.793,2.5,,,,
20120707220000,2.073,1.793,2.5,,,,
20120707230000,2.074,1.794,2.0,,,,
20120708000000,2.076,1.798,1.5,,,,
20120708010000,2.078,1.8,0.5,,,,
20120708020000,2.071,1.793,3.5,,,,
20120708030000,2.068,1.789,2.5,,,,
20120708040000,2.075,1.795,1.5,,,,
20120708050000,2.081,1.801,0.5,,,,
20120708060000,2.085,1.805,0.0,,,,
20120708070000,2.09,1.81,0.0,,,,
20120708080000,2.098,1.816,0.0,,,,
20120708090000,2.105,1.822,0.0,,,,
20120708100000,2.107,1.828,0.0,,,,
20120708110000,2.111,1.837,0.0,,,,
20120708120000,2.11,1.843,0.0,,,,
20120708130000,2.106,1.847,0.0,,,,
20120708140000,2.101,1.852,0.0,,,,
20120708150000,2.097,1.856,0.0,,,,
20120708160000,2.096,1.857,0.0,,,,
20120708170000,2.095,1.858,0.0,,,,
20120708180000,2.102,1.858,0.0,,,,
20120708190000,2.108,1.856,0.0,,,,
20120708200000,2.113,1.857,0.0,,,,
20120708210000,2.127,1.856,0.0,,,,
20120708220000,2.136,1.856,0.0,,,,
20120708230000,2.144,1.857,0.0,,,,
20120709000000,2.143,1.856,0.0,,,,
20120709010000,2.145,1.856,0.0,,,,
20120709020000,2.146,1.86,0.0,,,,
20120709030000,2.145,1.859,0.0,,,,
20120709040000,2.146,1.857,0.0,,,,
20120709050000,2.147,1.858,0.0,,,,
20120709060000,2.147,1.858,0.0,,,,
20120709070000,2.149,1.861,0.0,,,,
20120709080000,2.151,1.863,0.0,,,,
20120709090000,2.15,1.867,0.0,,,,
20120709100000,2.142,1.866,0.0,,,,
20120709110000,2.138,1.868,0.0,,,,
20120709120000,2.14,1.874,0.0,,,,
20120709130000,2.137,1.877,0.0,,,,
20120709140000,2.128,1.876,0.0,,,,
20120709150000,2.123,1.88,0.0,,,,
20120709160000,2.121,1.88,0.0,,,,
20120709170000,2.121,1.878,0.0,,,,
20120709180000,2.122,1.878,0.0,,,,
20120709190000,2.127,1.881,0.0,,,,
20120709200000,2.133,1.878,0.0,,,,
20120709210000,2.14,1.876,0.0,,,,
20120709220000,2.152,1.878,0.0,,,,
20120709230000,2.158,1.875,0.0,,,,
20120710000000,2.164,1.875,0.0,,,,
20120710010000,2.163,1.873,0.0,,,,
20120710020000,2.163,1.874,0.0,,,,
20120710030000,2.163,1.874,0.0,,,,
20120710040000,2.163,1.874,0.0,,,,
20120710050000,2.162,1.874,0.0,,,,
20120710060000,2.162,1.873,0.0,,,,
20120710070000,2.163,1.874,0.0,,,,
20120710080000,2.164,1.876,0.0,,,,
20120710090000,2.162,1.879,0.0,,,,
20120710100000,2.157,1.883,0.0,,,,
20120710110000,2.147,1.888,0.0,,,,
20120710120000,2.138,1.891,0.0,,,,
20120710130000,2.134,1.894,0.0,,,,
20120710140000,2.133,1.894,0.0,,,,
20120710150000,2.134,1.898,0.0,,,,
20120710160000,2.134,1.9,0.0,,,,
20120710170000,2.132,1.9,0.0,,,,
20120710180000,2.125,1.897,0.0,,,,
20120710190000,2.122,1.896,0.0,,,,
20120710200000,2.127,1.894,0.0,,,,
20120710210000,2.133,1.892,0.0,,,,
20120710220000,2.143,1.89,0.0,,,,
20120710230000,2.149,1.89,0.0,,,,
20120711000000,2.158,1.889,0.0,,,,
20120711010000,2.166,1.888,0.0,,,,
20120711020000,2.173,1.886,0.0,,,,
20120711030000,2.175,1.887,0.0,,,,
20120711040000,2.177,1.887,0.0,,,,
20120711050000,2.175,1.888,0.0,,,,
20120711060000,2.175,1.885,0.0,,,,
20120711070000,2.173,1.886,0.0,,,,
20120711080000,2.17,1.887,0.0,,,,
20120711090000,2.171,1.887,0.0,,,,
20120711100000,2.17,1.891,0.0,,,,
20120711110000,2.164,1.895,0.0,,,,
20120711120000,2.153,1.899,0.0,,,,
20120711130000,2.146,1.9,0.0,,,,
20120711140000,2.144,1.902,0.0,,,,
20120711150000,2.144,1.903,0.0,,,,
20120711160000,2.144,1.905,0.0,,,,
20120711170000,2.143,1.905,0.0,,,,
20120711180000,2.14,1.903,0.0,,,,
20120711190000,2.139,1.902,0.0,,,,
20120711200000,2.141,1.901,0.0,,,,
20120711210000,2.143,1.9,0.0,,,,
20120711220000,2.153,1.898,0.0,,,,
20120711230000,2.157,1.899,0.0,,,,
20120712000000,2.164,1.897,0.0,,,,
20120712010000,2.17,1.897,0.0,,,,
20120712020000,2.172,1.896,0.0,,,,
20120712030000,2.173,1.896,0.0,,,,
20120712040000,2.172,1.896,0.0,,,,
20120712050000,2.17,1.897,0.0,,,,
20120712060000,2.17,1.899,0.0,,,,
20120712070000,2.168,1.899,0.0,,,,
20120712080000,2.167,1.899,0.0,,,,
20120712090000,2.163,1.898,0.0,,,,
20120712100000,2.153,1.89,0.0,,,,
20120712110000,2.148,1.888,0.5,,,,
20120712120000,2.149,1.887,0.0,,,,
20120712130000,2.152,1.89,0.5,,,,
20120712140000,2.153,1.891,0.0,,,,
20120712150000,2.156,1.893,0.0,,,,
20120712160000,2.154,1.893,0.0,,,,
20120712170000,2.153,1.892,0.0,,,,
20120712180000,2.155,1.893,0.0,,,,
20120712190000,2.155,1.893,0.0,,,,
20120712200000,2.157,1.894,0.0,,,,
20120712210000,2.153,1.891,0.0,,,,
20120712220000,2.155,1.891,0.0,,,,
20120712230000,2.155,1.888,0.0,,,,
20120713000000,2.156,1.886,0.0,,,,
20120713010000,2.159,1.884,0.0,,,,
20120713020000,2.16,1.885,0.0,,,,
20120713030000,2.16,1.882,0.0,,,,
20120713040000,2.162,1.885,0.0,,,,
20120713050000,2.161,1.883,0.0,,,,
20120713060000,2.163,1.885,0.0,,,,
20120713070000,2.166,1.887,0.0,,,,
20120713080000,2.167,1.893,0.0,,,,
20120713090000,2.159,1.896,0.0,,,,
20120713100000,2.15,1.898,0.0,,,,
20120713110000,2.143,1.9,0.0,,,,
20120713120000,2.138,1.902,0.0,,,,
20120713130000,2.134,1.904,0.0,,,,
20120713140000,2.138,1.904,0.0,,,,
20120713150000,2.131,1.907,0.0,,,,
20120713160000,2.124,1.906,0.0,,,,
20120713170000,2.124,1.905,0.0,,,,
20120713180000,2.127,1.902,0.0,,,,
20120713190000,2.129,1.9,0.0,,,,
20120713200000,2.137,1.9,0.0,,,,
20120713210000,2.141,1.899,0.0,,,,
20120713220000,2.146,1.899,0.0,,,,
20120713230000,2.151,1.896,0.0,,,,
20120714000000,2.155,1.895,0.0,,,,
20120714010000,2.154,1.896,0.0,,,,
20120714020000,2.159,1.895,0.0,,,,
20120714030000,2.16,1.896,0.0,,,,
20120714040000,2.163,1.895,0.0,,,,
20120714050000,2.166,1.895,0.0,,,,
20120714060000,2.167,1.891,0.0,,,,
20120714070000,2.165,1.893,1.0,,,,
20120714080000,2.164,1.89,0.0,,,,
20120714090000,2.159,1.889,0.0,,,,
20120714100000,2.156,1.891,0.0,,,,
20120714110000,2.157,1.893,0.0,,,,
20120714120000,2.155,1.895,0.0,,,,
20120714130000,2.148,1.898,0.5,,,,
20120714140000,2.146,1.899,0.0,,,,
20120714150000,2.14,1.896,0.0,,,,
20120714160000,2.139,1.897,0.0,,,,
20120714170000,2.141,1.896,0.0,,,,
20120714180000,2.149,1.896,0.0,,,,
20120714190000,2.154,1.893,0.0,,,,
20120714200000,2.156,1.893,0.0,,,,
20120714210000,2.163,1.892,0.0,,,,
20120714220000,2.168,1.895,0.0,,,,
20120714230000,2.174,1.891,0.0,,,,
20120715000000,2.181,1.891,0.0,,,,
20120715010000,2.182,1.892,0.0,,,,
20120715020000,2.182,1.891,0.0,,,,
20120715030000,2.183,1.89,0.0,,,,
20120715040000,2.181,1.89,0.0,,,,
20120715050000,2.181,1.889,0.0,,,,
20120715060000,2.182,1.89,0.0,,,,
20120715070000,2.182,1.89,0.0,,,,
20120715080000,2.183,1.89,0.0,,,,
20120715090000,2.181,1.895,0.0,,,,
20120715100000,2.177,1.893,0.0,,,,
20120715110000,2.171,1.893,0.0,,,,
20120715120000,2.165,1.896,0.0,,,,
20120715130000,2.162,1.893,0.0,,,,
20120715140000,2.16,1.894,0.0,,,,
20120715150000,2.164,1.898,0.0,,,,
20120715160000,2.163,1.898,0.0,,,,
20120715170000,2.16,1.893,0.0,,,,
20120715180000,2.156,1.891,0.0,,,,
20120715190000,2.158,1.89,0.0,,,,
20120715200000,2.159,1.89,0.0,,,,
20120715210000,2.162,1.888,0.0,,,,
20120715220000,2.168,1.889,0.0,,,,
20120715230000,2.175,1.889,0.0,,,,
20120716000000,2.18,1.888,0.0,,,,
20120716010000,2.18,1.89,0.0,,,,
20120716020000,2.18,1.889,0.0,,,,
20120716030000,2.178,1.887,0.0,,,,
20120716040000,2.179,1.886,0.0,,,,
20120716050000,2.178,1.886,0.0,,,,
20120716060000,2.178,1.887,0.0,,,,
20120716070000,2.178,1.889,0.0,,,,
20120716080000,2.178,1.893,0.0,,,,
20120716090000,2.173,1.897,0.0,,,,
20120716100000,2.164,1.9,0.0,,,,
20120716110000,2.153,1.905,0.0,,,,
20120716120000,2.144,1.908,0.0,,,,
20120716130000,2.13,1.911,0.0,,,,
20120716140000,2.119,1.913,0.0,,,,
20120716150000,2.114,1.912,0.0,,,,
20120716160000,2.109,1.912,0.0,,,,
20120716170000,2.107,1.913,0.0,,,,
20120716180000,2.104,1.913,0.0,,,,
20120716190000,2.1,1.911,0.0,,,,
20120716200000,2.1,1.909,0.0,,,,
20120716210000,2.115,1.907,0.0,,,,
20120716220000,2.13,1.906,0.0,,,,
20120716230000,2.143,1.902,0.0,,,,
20120717000000,2.147,1.901,0.0,,,,
20120717010000,2.152,1.9,0.0,,,,
20120717020000,2.159,1.902,0.0,,,,
20120717030000,2.158,1.899,0.0,,,,
20120717040000,2.162,1.899,0.0,,,,
20120717050000,2.166,1.899,0.0,,,,
20120717060000,2.171,1.9,0.0,,,,
20120717070000,2.171,1.903,0.0,,,,
20120717080000,2.164,1.906,0.0,,,,
20120717090000,2.158,1.907,0.0,,,,
20120717100000,2.155,1.913,0.0,,,,
20120717110000,2.151,1.915,0.0,,,,
20120717120000,2.139,1.917,0.0,,,,
20120717130000,2.127,1.918,0.0,,,,
20120717140000,2.12,1.919,0.0,,,,
20120717150000,2.115,1.913,0.0,,,,
20120717160000,2.117,1.912,0.0,,,,
20120717170000,2.121,1.913,0.0,,,,
20120717180000,2.131,1.912,0.0,,,,
20120717190000,2.141,1.91,0.0,,,,
20120717200000,2.15,1.909,0.0,,,,
20120717210000,2.158,1.907,0.0,,,,
20120717220000,2.165,1.905,0.0,,,,
20120717230000,2.171,1.905,0.0,,,,
20120718000000,2.177,1.906,0.0,,,,
20120718010000,2.181,1.901,0.0,,,,
20120718020000,2.182,1.903,0.0,,,,
20120718030000,2.185,1.902,0.0,,,,
20120718040000,2.191,1.902,0.0,,,,
20120718050000,2.192,1.899,0.0,,,,
20120718060000,2.193,1.902,0.0,,,,
20120718070000,2.192,1.903,0.0,,,,
20120718080000,2.188,1.901,0.0,,,,
20120718090000,2.186,1.903,0.0,,,,
20120718100000,2.185,1.905,0.0,,,,
20120718110000,2.177,1.906,0.0,,,,
20120718120000,2.175,1.907,0.0,,,,
20120718130000,2.174,1.91,0.0,,,,
20120718140000,2.166,1.912,0.0,,,,
20120718150000,2.16,1.909,0.0,,,,
20120718160000,2.158,1.921,0.0,,,,
20120718170000,2.158,1.923,0.0,,,,
20120718180000,2.158,1.923,0.0,,,,
20120718190000,2.16,1.923,0.0,,,,
20120718200000,2.165,1.924,0.0,,,,
20120718210000,2.17,1.921,0.0,,,,
20120718220000,2.173,1.922,0.0,,,,
20120718230000,2.18,1.922,0.0,,,,
20120719000000,2.185,1.921,0.0,,,,
20120719010000,2.188,1.922,0.0,,,,
20120719020000,2.189,1.92,0.0,,,,
20120719030000,2.19,1.92,0.0,,,,
20120719040000,2.189,1.92,0.0,,,,
20120719050000,2.19,1.918,0.0,,,,
20120719060000,2.197,1.918,0.0,,,,
20120719070000,2.194,1.92,0.0,,,,
20120719080000,2.192,1.922,0.0,,,,
20120719090000,2.188,1.924,0.0,,,,
20120719100000,2.173,1.924,0.0,,,,
20120719110000,2.166,1.925,0.0,,,,
20120719120000,2.158,1.926,0.0,,,,
20120719130000,2.157,1.924,0.0,,,,
20120719140000,2.158,1.924,0.0,,,,
20120719150000,2.161,1.924,0.0,,,,
20120719160000,2.167,1.922,0.0,,,,
20120719170000,2.171,1.92,0.0,,,,
20120719180000,2.183,1.921,0.0,,,,
20120719190000,2.192,1.92,0.0,,,,
20120719200000,2.199,1.919,0.0,,,,
20120719210000,2.199,1.916,0.0,,,,
20120719220000,2.198,1.917,0.0,,,,
20120719230000,2.197,1.916,0.0,,,,
20120720000000,2.196,1.917,0.0,,,,
20120720010000,2.197,1.915,0.0,,,,
20120720020000,2.197,1.915,0.0,,,,
20120720030000,2.196,1.915,0.0,,,,
20120720040000,2.197,1.914,0.0,,,,
20120720050000,2.198,1.913,0.0,,,,
20120720060000,2.197,1.915,0.0,,,,
20120720070000,2.195,1.916,0.0,,,,
20120720080000,2.197,1.917,0.0,,,,
20120720090000,2.198,1.916,0.0,,,,
20120720100000,2.199,1.918,0.0,,,,
20120720110000,2.195,1.92,0.0,,,,
20120720120000,2.192,1.919,0.0,,,,
20120720130000,2.189,1.919,0.0,,,,
20120720140000,2.188,1.919,0.0,,,,
20120720150000,2.189,1.919,0.0,,,,
20120720160000,2.193,1.919,0.0,,,,
20120720170000,2.199,1.918,0.0,,,,
20120720180000,2.2,1.92,0.0,,,,
20120720190000,2.199,1.916,0.0,,,,
20120720200000,2.2,1.918,0.0,,,,
20120720210000,2.198,1.914,0.0,,,,
20120720220000,2.198,1.916,0.0,,,,
20120720230000,2.198,1.913,0.0,,,,
20120721000000,2.197,1.914,0.0,,,,
20120721010000,2.197,1.913,0.0,,,,
20120721020000,2.193,1.911,0.0,,,,
20120721030000,2.189,1.909,0.0,,,,
20120721040000,2.189,1.907,0.0,,,,
20120721050000,2.189,1.908,0.0,,,,
20120721060000,2.19,1.908,0.0,,,,
20120721070000,2.188,1.91,0.0,,,,
20120721080000,2.178,1.901,0.0,,,,
20120721090000,2.166,1.889,0.5,,,,
20120721100000,2.168,1.888,0.5,,,,
20120721110000,2.173,1.891,0.0,,,,
20120721120000,2.174,1.895,0.0,,,,
20120721130000,2.178,1.897,0.0,,,,
20120721140000,2.18,1.899,0.0,,,,
20120721150000,2.181,1.9,0.0,,,,
20120721160000,2.182,1.9,0.0,,,,
20120721170000,2.183,1.903,0.0,,,,
20120721180000,2.183,1.9,0.0,,,,
20120721190000,2.182,1.901,0.0,,,,
20120721200000,2.179,1.899,0.0,,,,
20120721210000,2.179,1.899,0.0,,,,
20120721220000,2.179,1.898,0.0,,,,
20120721230000,2.178,1.898,0.0,,,,
20120722000000,2.178,1.897,0.0,,,,
20120722010000,2.178,1.897,0.0,,,,
20120722020000,2.177,1.897,0.0,,,,
20120722030000,2.177,1.896,0.0,,,,
20120722040000,2.177,1.897,0.0,,,,
20120722050000,2.174,1.893,0.0,,,,
20120722060000,2.172,1.89,0.0,,,,
20120722070000,2.174,1.894,0.0,,,,
20120722080000,2.175,1.895,0.0,,,,
20120722090000,2.173,1.893,0.0,,,,
20120722100000,2.176,1.894,0.0,,,,
20120722110000,2.177,1.897,0.0,,,,
20120722120000,2.18,1.9,0.0,,,,
20120722130000,2.182,1.9,0.0,,,,
20120722140000,2.183,1.902,0.0,,,,
20120722150000,2.184,1.904,0.0,,,,
20120722160000,2.184,1.903,0.0,,,,
20120722170000,2.185,1.901,0.0,,,,
20120722180000,2.186,1.905,0.0,,,,
20120722190000,2.184,1.904,0.0,,,,
20120722200000,2.184,1.903,0.0,,,,
20120722210000,2.184,1.904,0.0,,,,
20120722220000,2.184,1.901,0.0,,,,
20120722230000,2.184,1.903,0.0,,,,
20120723000000,2.185,1.903,0.0,,,,
20120723010000,2.185,1.903,0.0,,,,
20120723020000,2.184,1.902,0.0,,,,
20120723030000,2.185,1.903,0.0,,,,
20120723040000,2.185,1.903,0.0,,,,
20120723050000,2.186,1.903,0.0,,,,
20120723060000,2.184,1.903,0.0,,,,
20120723070000,2.187,1.906,0.0,,,,
20120723080000,2.188,1.908,0.0,,,,
20120723090000,2.186,1.911,0.0,,,,
20120723100000,2.182,1.913,0.0,,,,
20120723110000,2.17,1.917,0.0,,,,
20120723120000,2.16,1.919,0.0,,,,
20120723130000,2.155,1.922,0.0,,,,
20120723140000,2.149,1.924,0.0,,,,
20120723150000,2.148,1.925,0.0,,,,
20120723160000,2.143,1.925,0.0,,,,
20120723170000,2.142,1.923,0.0,,,,
20120723180000,2.142,1.923,0.0,,,,
20120723190000,2.144,1.917,4.5,,,,
20120723200000,2.105,1.876,6.5,,,,
20120723210000,2.105,1.863,0.0,,,,
20120723220000,2.117,1.862,0.0,,,,
20120723230000,2.124,1.862,0.0,,,,
20120724000000,2.127,1.861,0.0,,,,
20120724010000,2.132,1.862,0.0,,,,
20120724020000,2.136,1.862,0.0,,,,
20120724030000,2.137,1.861,0.0,,,,
20120724040000,2.138,1.861,0.0,,,,
20120724050000,2.138,1.861,0.0,,,,
20120724060000,2.14,1.861,0.0,,,,
20120724070000,2.142,1.866,0.0,,,,
20120724080000,2.142,1.869,0.0,,,,
20120724090000,2.142,1.875,0.0,,,,
20120724100000,2.139,1.883,0.0,,,,
20120724110000,2.129,1.886,0.0,,,,
20120724120000,2.123,1.89,0.0,,,,
20120724130000,2.121,1.892,0.0,,,,
20120724140000,2.118,1.893,0.0,,,,
20120724150000,2.12,1.897,0.0,,,,
20120724160000,2.118,1.894,0.0,,,,
20120724170000,2.115,1.888,0.0,,,,
20120724180000,2.114,1.884,0.0,,,,
20120724190000,2.117,1.884,0.0,,,,
20120724200000,2.124,1.886,0.0,,,,
20120724210000,2.129,1.885,0.0,,,,
20120724220000,2.13,1.885,0.0,,,,
20120724230000,2.137,1.882,0.0,,,,
20120725000000,2.142,1.882,0.0,,,,
20120725010000,2.145,1.885,0.0,,,,
20120725020000,2.146,1.882,0.0,,,,
20120725030000,2.146,1.882,0.0,,,,
20120725040000,2.147,1.883,0.0,,,,
20120725050000,2.147,1.882,0.0,,,,
20120725060000,2.149,1.883,0.0,,,,
20120725070000,2.151,1.884,0.0,,,,
20120725080000,2.152,1.888,0.0,,,,
20120725090000,2.145,1.89,0.0,,,,
20120725100000,2.136,1.892,0.0,,,,
20120725110000,2.127,1.894,0.0,,,,
20120725120000,2.116,1.889,0.0,,,,
20120725130000,2.118,1.889,0.0,,,,
20120725140000,2.118,1.889,0.0,,,,
20120725150000,2.121,1.89,0.0,,,,
20120725160000,2.123,1.89,0.0,,,,
20120725170000,2.126,1.893,0.0,,,,
20120725180000,2.123,1.892,0.0,,,,
20120725190000,2.121,1.892,0.0,,,,
20120725200000,2.123,1.888,0.0,,,,
20120725210000,2.126,1.888,0.0,,,,
20120725220000,2.131,1.887,0.0,,,,
20120725230000,2.133,1.886,0.0,,,,
20120726000000,2.135,1.885,0.0,,,,
20120726010000,2.139,1.886,0.0,,,,
20120726020000,2.141,1.885,0.0,,,,
20120726030000,2.144,1.886,0.0,,,,
20120726040000,2.143,1.885,0.0,,,,
20120726050000,2.143,1.884,0.0,,,,
20120726060000,2.146,1.882,0.0,,,,
20120726070000,2.149,1.885,0.0,,,,
20120726080000,2.149,1.89,0.0,,,,
20120726090000,2.141,1.894,0.0,,,,
20120726100000,2.134,1.898,0.0,,,,
20120726110000,2.125,1.904,0.0,,,,
20120726120000,2.115,1.903,0.0,,,,
20120726130000,2.109,1.905,0.0,,,,
20120726140000,2.106,1.903,0.0,,,,
20120726150000,2.104,1.905,0.0,,,,
20120726160000,2.099,1.898,0.0,,,,
20120726170000,2.106,1.901,0.0,,,,
20120726180000,2.108,1.9,0.0,,,,
20120726190000,2.109,1.9,0.0,,,,
20120726200000,2.115,1.899,0.0,,,,
20120726210000,2.125,1.9,0.0,,,,
20120726220000,2.131,1.898,0.0,,,,
20120726230000,2.139,1.896,0.0,,,,
20120727000000,2.141,1.896,0.0,,,,
20120727010000,2.146,1.893,0.0,,,,
20120727020000,2.151,1.89,0.0,,,,
20120727030000,2.154,1.891,0.0,,,,
20120727040000,2.156,1.89,0.0,,,,
20120727050000,2.157,1.89,0.0,,,,
20120727060000,2.159,1.89,0.0,,,,
20120727070000,2.161,1.895,0.0,,,,
20120727080000,2.16,1.898,0.0,,,,
20120727090000,2.152,1.901,0.0,,,,
20120727100000,2.139,1.901,0.0,,,,
20120727110000,2.137,1.908,0.0,,,,
20120727120000,2.13,1.909,0.0,,,,
20120727130000,2.123,1.911,0.0,,,,
20120727140000,2.115,1.915,0.0,,,,
20120727150000,2.11,1.913,0.0,,,,
20120727160000,2.104,1.913,0.0,,,,
20120727170000,2.102,1.915,0.0,,,,
20120727180000,2.102,1.911,0.0,,,,
20120727190000,2.107,1.912,0.0,,,,
20120727200000,2.118,1.909,0.0,,,,
20120727210000,2.131,1.908,0.0,,,,
20120727220000,2.136,1.909,0.0,,,,
20120727230000,2.141,1.91,0.0,,,,
20120728000000,2.148,1.907,0.0,,,,
20120728010000,2.152,1.906,0.0,,,,
20120728020000,2.153,1.906,0.0,,,,
20120728030000,2.154,1.906,0.0,,,,
20120728040000,2.151,1.903,0.0,,,,
20120728050000,2.154,1.903,0.0,,,,
20120728060000,2.16,1.901,0.0,,,,
20120728070000,2.164,1.906,0.0,,,,
20120728080000,2.163,1.908,0.0,,,,
20120728090000,2.156,1.911,0.0,,,,
20120728100000,2.149,1.914,0.0,,,,
20120728110000,2.142,1.919,0.0,,,,
20120728120000,2.13,1.92,0.0,,,,
20120728130000,2.118,1.923,0.0,,,,
20120728140000,2.114,1.924,0.0,,,,
20120728150000,2.109,1.925,0.0,,,,
20120728160000,2.101,1.924,0.0,,,,
20120728170000,2.095,1.923,0.0,,,,
20120728180000,2.091,1.922,0.0,,,,
20120728190000,2.095,1.92,0.0,,,,